Wetbulb
70.51 70.61 70.80 70.82 71.12 71.21 70.66 69.89 70.33 68.24 69.98 71.20 71.41 72.21 72.43 72.38 72.46 72.18 72.53 72.47 71.21 71.28 71.17 70.00 68.65 67.71 67.39 65.49 64.14 63.54 61.52 59.67 57.79 58.94 61.07 61.93 62.76 63.14 64.93 66.92 65.59 63.92 63.63
70.83 70.93 70.85 71.16 71.63 71.91 71.37 70.14 70.24 70.99 68.93 70.52 71.38 71.74 72.97 72.91 72.63 72.30 71.69 72.70 72.61 71.42 71.81 71.20 70.91 70.57 67.42 66.14 64.38 63.44 62.87 61.36 59.75 58.19 58.67 62.11 62.22 63.25 63.86 65.14 65.76 65.31 63.30
70.08 70.88 70.80 70.41 70.23 70.80 72.59 72.49 70.51 69.97 70.03 69.62 70.77 71.83 72.33 73.11 72.97 72.58 72.29 72.07 72.56 73.03 72.54 71.99 71.95 70.54 69.69 68.23 65.98 64.53 63.71 63.25 61.10 59.38 59.03 60.81 63.44 62.93 62.44 63.54 63.49 63.26 64.42
70.38 70.42 70.71 71.01 71.12 70.59 70.82 72.18 72.68 71.49 70.48 70.80 71.07 71.81 72.45 72.85 73.23 73.13 72.99 72.50 72.18 72.72 73.25 73.07 72.66 71.72 71.53 70.87 68.45 66.88 64.98 63.91 62.33 61.65 60.98 60.65 62.41 63.53 62.84 61.66 61.83 62.69 63.85
70.36 70.46 70.71 71.96 72.20 72.08 71.22 70.85 71.88 73.00 72.26 71.73 71.46 72.57 72.79 72.92 73.37 73.04 73.18 72.90 72.38 72.08 72.58 72.90 73.10 72.98 70.90 70.60 71.05 69.41 66.23 65.30 64.06 63.40 62.74 60.55 61.07 62.33 62.23 62.09 62.91 63.82 63.38
70.70 70.47 71.30 71.51 72.23 72.38 72.28 71.87 70.85 71.88 73.11 71.98 71.24 71.64 72.56 73.70 69.34 68.27 72.10 72.92 72.88 72.67 72.09 72.27 72.96 71.61 70.80 67.72 67.50 68.37 69.16 67.64 66.30 65.00 65.20 63.46 63.51 63.31 63.64 64.38 62.99 59.87 60.12
71.18 71.38 71.62 71.71 71.59 72.30 72.92 72.70 71.62 71.16 71.74 72.63 72.61 71.94 71.88 72.78 66.58 66.66 68.52 73.28 72.68 72.56 72.46 72.48 72.55 73.22 71.11 72.91 68.09 66.32 66.29 65.49 67.76 69.94 66.14 66.76 65.42 65.20 64.51 62.89 64.15 63.53 63.32
71.30 71.51 72.10 72.23 72.00 72.18 72.47 72.86 72.83 72.47 71.72 71.63 71.63 72.69 72.83 73.20 65.90 64.47 67.03 72.94 73.56 73.44 73.30 73.09 72.82 72.81 72.80 72.18 72.37 71.89 69.65 69.84 68.69 67.88 69.98 70.80 69.48 68.19 65.70 65.60 65.08 64.86 65.05
70.41 71.20 72.05 72.52 72.35 72.74 72.31 72.51 73.12 73.32 72.89 72.49 72.51 71.64 71.49 72.68 63.58 63.72 64.97 71.75 72.82 73.13 73.68 73.74 73.79 73.44 69.29 64.61 71.64 71.79 71.98 72.42 67.90 64.17 64.56 65.12 64.14 62.41 65.34 64.99 62.33 62.03 62.21
69.99 71.07 72.19 72.57 72.80 72.58 73.09 72.95 73.45 73.35 73.30 73.82 73.72 73.74 70.05 72.21 64.10 61.46 64.12 72.45 72.23 72.67 73.50 73.96 67.09 71.13 64.96 62.33 70.17 71.77 71.03 72.04 72.90 72.76 70.46 65.96 64.17 66.13 61.21 65.80 67.67 63.28 63.21
69.79 70.23 71.32 72.61 72.93 73.49 73.37 73.62 73.42 73.05 73.35 73.05 73.18 73.79 74.32 72.85 72.68 60.18 59.57 72.26 72.87 72.80 72.90 73.24 74.03 63.97 60.43 59.66 60.98 73.64 72.50 72.98 72.28 72.53 73.30 73.17 72.53 70.88 70.01 66.37 66.95 67.48 65.61
69.86 69.76 70.09 71.06 72.91 73.51 73.41 73.22 73.22 73.10 72.54 72.52 72.79 73.12 74.14 74.61 65.68 60.75 59.07 60.79 69.07 73.47 73.45 74.23 73.88 62.70 58.51 57.61 59.74 63.63 61.79 63.24 72.69 73.33 73.26 73.22 73.12 72.19 71.19 70.32 68.10 67.56 68.55
69.58 69.81 70.08 70.79 71.31 72.61 72.67 72.82 72.70 72.78 72.53 72.46 72.47 72.34 72.82 74.00 74.24 61.90 59.02 58.88 60.16 69.87 74.97 71.85 64.36 59.14 56.47 57.81 57.09 58.21 58.58 67.48 69.63 70.80 71.69 72.45 73.37 74.43 73.77 72.06 69.82 68.76 68.49
69.63 69.13 70.09 70.97 70.95 72.10 72.91 72.92 72.81 72.68 72.26 72.28 72.39 72.62 72.96 73.22 74.39 73.94 68.09 65.65 60.93 63.49 66.33 69.92 66.91 63.74 61.56 65.35 65.51 64.13 64.01 66.63 68.60 69.64 70.99 72.19 73.14 73.35 73.60 72.99 70.12 68.61 67.64
68.92 69.23 69.27 70.28 68.68 70.26 65.47 65.16 71.77 72.97 70.83 72.90 73.05 73.53 73.16 72.99 73.61 68.41 69.54 72.36 71.21 67.27 67.66 69.40 70.13 70.44 70.80 71.25 71.66 71.43 71.46 68.68 66.84 67.93 68.68 69.92 70.68 71.49 71.97 73.09 71.46 69.72 67.86
66.84 66.90 66.56 69.92 70.12 69.54 64.03 59.78 48.96 47.04 46.26 48.69 53.40 66.71 60.91 54.49 51.95 50.68 49.78 51.23 53.22 53.22 65.87 67.95 67.68 67.66 67.89 67.86 67.55 68.93 69.58 69.49 70.93 70.57 70.12 70.37 69.83 70.03 70.14 70.65 70.98 69.94 67.43
64.65 66.12 65.36 65.00 70.78 70.33 66.14 64.57 58.72 54.60 47.71 44.68 44.61 47.73 51.21 49.76 45.97 45.25 45.07 46.33 47.78 54.85 66.58 65.79 65.60 63.66 62.71 61.25 61.19 61.57 62.26 63.12 63.99 64.20 64.38 64.87 65.48 66.50 66.72 67.87 69.33 67.64 67.15
64.01 59.99 64.92 66.67 69.69 71.62 69.15 64.29 61.37 61.51 59.01 56.71 48.67 47.06 43.58 43.71 44.27 44.52 46.15 53.49 60.01 59.50 61.19 59.25 58.53 58.29 58.44 61.56 62.11 62.37 62.65 62.99 63.38 63.66 64.11 64.36 64.48 64.36 64.28 65.01 65.73 66.05 66.19
63.53 64.70 64.35 63.96 64.11 66.16 68.20 64.87 63.73 61.17 59.25 57.96 58.16 53.39 47.73 43.80 44.52 45.43 47.97 59.48 59.00 56.59 58.02 56.97 57.43 60.04 62.06 62.68 62.90 63.02 63.36 62.89 63.35 63.35 63.61 63.34 64.06 65.24 64.86 64.35 62.34 53.22 58.44
62.84 60.84 61.75 63.69 63.75 65.27 65.68 64.87 62.73 60.34 59.75 59.83 59.47 58.97 58.35 57.78 59.46 59.50 57.51 56.51 56.61 56.67 56.89 57.49 58.42 59.20 59.60 60.19 61.80 62.52 62.71 62.49 63.96 63.93 63.62 62.92 63.54 62.78 61.83 61.04 60.03 59.33 59.91
62.72 61.89 60.35 61.62 61.22 62.11 62.64 61.69 60.96 60.39 59.56 58.56 56.35 53.16 47.78 59.76 58.20 58.04 59.10 59.48 60.19 58.68 58.09 58.70 58.70 60.73 62.23 62.44 62.54 62.34 62.57 63.05 63.64 63.66 63.02 62.46 62.57 59.96 60.00 60.56 60.47 60.79 59.44
61.17 60.12 60.11 59.83 60.00 60.13 60.33 60.66 60.63 60.19 59.69 58.39 57.61 54.86 49.23 57.15 56.43 55.69 55.35 55.49 56.01 57.35 58.49 59.84 60.81 60.95 61.09 62.57 63.72 63.22 62.05 61.53 62.49 63.12 63.00 61.87 60.29 60.52 60.42 59.48 60.22 58.15 56.85
60.66 59.81 58.98 57.81 57.47 55.71 57.26 57.48 56.90 56.35 55.89 55.97 56.07 55.25 53.95 52.91 51.82 51.26 50.58 50.26 50.23 51.06 51.41 51.14 50.61 49.31 50.04 50.75 52.53 55.53 58.07 60.06 61.33 61.39 62.14 61.69 61.17 60.78 60.24 59.48 59.01 57.85 56.83
59.33 58.82 57.64 56.39 55.71 55.59 54.75 53.39 52.11 49.53 51.92 51.35 51.00 50.27 49.84 49.92 49.22 48.54 48.42 49.34 49.19 49.10 48.79 48.29 47.22 45.71 46.31 46.77 46.46 45.42 45.41 43.64 43.86 58.42 61.91 61.10 60.72 58.05 58.04 55.01 54.75 54.13 52.40
56.25 55.49 54.98 54.60 53.81 53.04 52.49 51.61 50.57 49.78 49.14 48.65 48.02 47.64 47.38 47.37 47.06 46.98 46.96 47.40 47.27 47.19 47.08 46.78 45.65 44.64 43.13 44.14 43.39 42.16 38.13 34.01 37.28 39.32 55.63 57.96 57.15 56.31 54.78 53.50 52.71 51.49 50.30
55.77 55.19 54.23 53.61 52.77 51.87 50.70 49.62 48.88 47.90 46.92 46.38 45.81 45.35 45.14 44.84 44.72 44.81 44.59 44.61 44.91 44.91 44.79 44.88 44.72 44.17 41.12 40.93 39.09 35.97 33.67 35.01 38.54 34.02 44.35 56.98 56.51 55.69 56.54 54.50 53.24 51.91 50.91
MSLP
1009.21 1009.94 1010.68 1011.42 1012.11 1012.72 1013.26 1013.93 1014.44 1014.96 1015.38 1015.68 1016.04 1016.46 1016.76 1016.98 1017.28 1017.68 1018.10 1018.54 1018.98 1019.11 1019.25 1019.43 1019.46 1019.75 1019.96 1020.21 1020.38 1020.63 1020.92 1021.16 1021.33 1020.54 1020.33 1019.82 1019.99 1020.01 1019.81 1019.69 1019.72 1019.97 1020.17
1008.05 1008.93 1009.75 1010.59 1011.32 1011.99 1012.51 1013.11 1013.74 1014.32 1014.81 1015.28 1015.66 1016.01 1016.27 1016.46 1016.70 1017.12 1017.55 1017.95 1018.42 1018.76 1018.86 1019.03 1019.00 1019.27 1019.55 1019.81 1020.06 1020.22 1020.39 1020.47 1020.88 1020.80 1020.41 1019.98 1019.80 1019.57 1019.31 1019.44 1019.26 1019.22 1019.45
1007.34 1008.22 1009.15 1009.96 1010.70 1011.23 1011.82 1012.38 1012.99 1013.61 1014.26 1014.74 1015.13 1015.39 1015.53 1015.82 1016.22 1016.59 1016.89 1017.26 1017.57 1017.92 1018.19 1018.41 1018.46 1018.76 1018.90 1019.06 1019.46 1019.70 1019.67 1020.02 1020.38 1020.46 1020.11 1019.58 1019.26 1019.24 1019.23 1019.05 1018.89 1018.79 1018.70
1006.57 1007.58 1008.35 1009.06 1009.78 1010.41 1010.93 1011.59 1012.21 1012.79 1013.49 1013.93 1014.31 1014.54 1014.84 1015.31 1015.61 1015.88 1016.18 1016.52 1016.82 1017.06 1017.36 1017.58 1017.70 1017.91 1017.99 1018.20 1018.65 1018.80 1019.07 1019.38 1019.52 1019.57 1019.44 1019.10 1018.93 1018.54 1018.73 1018.61 1018.62 1018.18 1018.09
1005.76 1006.76 1007.33 1008.13 1008.91 1009.66 1010.26 1010.78 1011.30 1011.92 1012.34 1012.82 1013.43 1013.75 1014.07 1014.49 1014.84 1015.14 1015.45 1015.74 1016.01 1016.26 1016.48 1016.65 1016.76 1016.83 1016.96 1017.21 1017.62 1017.75 1018.12 1018.33 1018.47 1018.45 1018.44 1018.13 1018.10 1018.22 1017.94 1017.54 1017.53 1017.11 1017.33
1004.85 1005.58 1006.33 1007.32 1008.09 1008.74 1009.35 1010.04 1010.61 1010.93 1011.44 1011.97 1012.28 1012.71 1013.17 1013.50 1013.80 1014.16 1014.56 1014.94 1015.13 1015.33 1015.50 1015.64 1015.68 1015.78 1016.00 1016.13 1016.26 1016.28 1016.54 1016.88 1017.12 1017.28 1016.98 1016.81 1016.40 1016.50 1016.56 1016.53 1016.64 1017.00 1016.96
1004.10 1004.91 1005.89 1006.73 1007.38 1007.93 1008.43 1009.18 1009.74 1010.17 1010.57 1010.94 1011.35 1011.70 1012.02 1012.42 1012.76 1013.15 1013.55 1013.93 1014.17 1014.24 1014.34 1014.51 1014.71 1014.82 1014.94 1015.25 1015.44 1015.53 1015.57 1015.31 1015.31 1015.67 1015.77 1015.17 1014.85 1014.80 1015.18 1015.47 1015.31 1015.22 1015.18
1003.53 1004.36 1005.22 1005.88 1006.58 1007.30 1007.92 1008.34 1008.84 1009.28 1009.67 1010.02 1010.40 1010.75 1011.14 1011.40 1011.81 1012.20 1012.67 1013.20 1013.24 1013.16 1013.26 1013.40 1013.55 1013.52 1013.83 1014.21 1014.56 1014.58 1014.48 1014.03 1014.26 1014.55 1014.26 1013.22 1013.36 1013.65 1013.79 1013.77 1013.81 1014.08 1014.20
1002.54 1003.18 1004.02 1004.82 1005.55 1006.33 1006.92 1007.22 1007.64 1008.28 1008.72 1008.97 1009.26 1009.73 1010.13 1010.43 1010.79 1011.24 1012.01 1012.40 1012.30 1012.17 1012.20 1012.31 1012.35 1012.42 1012.67 1013.22 1013.64 1013.48 1013.16 1012.18 1012.80 1012.87 1012.48 1012.06 1012.04 1012.15 1012.05 1013.00 1013.06 1013.79 1013.20
1001.52 1001.97 1002.96 1003.76 1004.48 1005.13 1005.57 1006.04 1006.32 1007.04 1007.39 1007.85 1008.26 1008.57 1008.91 1009.30 1009.78 1010.25 1010.92 1011.30 1011.35 1011.47 1011.40 1011.18 1011.27 1011.44 1011.86 1012.26 1012.63 1012.61 1011.94 1011.42 1011.95 1011.74 1011.62 1011.46 1011.40 1011.12 1011.84 1011.86 1011.65 1012.17 1012.23
1000.70 1001.76 1002.45 1002.84 1003.24 1003.88 1004.64 1005.30 1005.74 1006.18 1006.65 1007.05 1007.34 1007.56 1007.92 1008.33 1008.74 1009.28 1009.85 1010.23 1010.18 1010.26 1009.99 1009.95 1010.15 1010.43 1010.75 1011.11 1011.17 1011.03 1010.52 1010.42 1010.33 1010.42 1009.99 1009.64 1009.59 1009.67 1009.94 1010.24 1010.20 1010.45 1010.67
1000.46 1001.08 1001.59 1002.14 1002.81 1003.45 1003.96 1004.50 1005.02 1005.56 1005.96 1006.29 1006.64 1006.84 1006.98 1007.32 1007.78 1008.29 1008.68 1009.00 1008.94 1009.14 1008.94 1008.96 1009.10 1009.32 1009.42 1009.53 1009.79 1009.84 1009.54 1009.57 1009.73 1009.55 1009.19 1008.47 1008.28 1008.28 1008.20 1008.08 1007.77 1007.91 1007.86
1000.40 1000.62 1000.96 1001.56 1002.14 1002.66 1003.22 1003.80 1004.54 1004.92 1005.18 1005.49 1005.78 1006.04 1006.29 1006.57 1006.80 1007.14 1007.47 1007.81 1008.10 1008.38 1008.03 1007.98 1008.15 1008.37 1008.52 1008.94 1009.18 1009.10 1009.19 1009.51 1009.31 1009.00 1008.29 1007.46 1007.06 1006.53 1006.43 1006.32 1006.31 1006.31 1006.04
1000.76 1000.85 1000.98 1001.35 1001.68 1002.07 1002.64 1003.29 1003.86 1004.13 1004.36 1004.65 1004.99 1005.35 1005.68 1005.88 1006.09 1006.45 1007.05 1007.34 1007.47 1007.85 1007.80 1007.62 1007.84 1008.09 1008.20 1008.18 1008.27 1008.33 1008.54 1008.51 1008.30 1007.99 1007.39 1006.45 1005.93 1005.78 1005.30 1005.00 1004.73 1004.68 1004.31
1000.68 1000.85 1001.01 1001.30 1001.72 1002.20 1002.86 1003.58 1003.60 1003.11 1003.50 1003.80 1003.88 1004.41 1005.18 1005.50 1005.40 1005.48 1005.93 1006.44 1006.66 1006.79 1007.25 1007.56 1007.64 1007.62 1007.65 1007.59 1007.54 1007.47 1007.44 1007.51 1007.60 1007.24 1006.81 1006.14 1005.52 1005.12 1004.43 1003.98 1003.60 1003.15 1002.92
1001.25 1001.20 1001.16 1001.18 1001.40 1001.96 1002.87 1003.96 1004.27 1004.21 1003.80 1003.42 1003.50 1003.72 1005.04 1005.13 1005.12 1005.52 1005.87 1006.07 1006.19 1006.52 1007.03 1007.20 1007.30 1007.50 1007.56 1007.51 1007.54 1007.40 1007.27 1007.18 1007.04 1006.76 1006.32 1005.84 1005.14 1004.41 1003.49 1002.94 1002.48 1002.02 1001.17
1001.43 1001.24 1000.95 1000.98 1001.17 1001.68 1002.56 1003.31 1004.08 1004.73 1004.22 1004.23 1004.12 1004.24 1004.48 1005.17 1005.70 1005.93 1006.17 1006.46 1006.66 1006.72 1006.91 1007.22 1007.48 1007.66 1007.73 1007.81 1007.83 1007.78 1007.60 1007.46 1007.25 1006.82 1006.36 1005.66 1004.88 1004.04 1003.04 1002.10 1001.55 1001.12 1000.79
1001.16 1001.02 1000.90 1000.58 1000.75 1001.10 1001.80 1002.66 1003.34 1003.84 1004.35 1005.19 1005.44 1005.50 1005.72 1005.80 1006.11 1006.30 1006.44 1006.56 1007.08 1007.16 1007.48 1007.82 1008.01 1008.00 1008.00 1008.00 1007.87 1007.70 1007.52 1007.19 1006.93 1006.59 1006.11 1005.46 1004.64 1003.66 1002.64 1001.89 1001.26 1000.65 1000.16
1001.34 1001.33 1001.10 1000.72 1000.76 1000.96 1001.61 1002.43 1003.20 1003.85 1004.50 1005.30 1005.89 1006.25 1006.53 1006.46 1006.68 1006.66 1006.76 1006.94 1007.47 1007.79 1007.86 1007.90 1007.96 1007.98 1007.86 1007.68 1007.47 1007.30 1007.10 1006.85 1006.58 1006.16 1005.64 1005.02 1004.05 1003.24 1002.36 1001.63 1001.14 1000.72 999.69
1001.67 1001.53 1001.41 1001.17 1001.25 1001.35 1001.96 1002.70 1003.52 1004.41 1005.08 1005.59 1006.06 1006.65 1006.75 1006.83 1007.04 1007.18 1007.31 1007.50 1007.65 1007.70 1007.77 1007.79 1007.72 1007.61 1007.39 1007.19 1006.96 1006.77 1006.77 1006.47 1006.07 1005.71 1005.19 1004.70 1004.06 1003.43 1003.23 1002.88 1002.19 1001.68 1001.48
1001.95 1001.91 1001.79 1001.74 1001.97 1002.30 1002.66 1003.17 1004.07 1004.71 1005.56 1006.06 1006.69 1007.02 1007.10 1007.26 1007.61 1007.86 1007.90 1007.92 1007.84 1007.72 1007.66 1007.51 1007.31 1007.07 1006.85 1006.77 1006.67 1006.50 1006.22 1006.10 1005.74 1005.29 1004.93 1004.72 1004.43 1003.88 1003.88 1003.86 1003.32 1002.90 1002.49
1001.93 1001.95 1001.97 1002.09 1002.49 1003.02 1003.59 1004.27 1004.89 1005.47 1006.05 1006.49 1007.20 1007.65 1007.46 1007.82 1008.24 1008.44 1008.57 1008.49 1008.44 1008.27 1007.96 1007.58 1007.34 1007.33 1007.33 1006.95 1006.49 1006.39 1006.38 1005.89 1005.43 1004.98 1004.88 1004.76 1004.52 1004.27 1004.20 1004.18 1004.17 1004.01 1003.48
1002.13 1001.98 1002.10 1002.53 1002.94 1003.48 1004.21 1005.08 1005.76 1006.40 1006.93 1007.43 1007.88 1008.19 1008.44 1008.66 1008.88 1009.11 1009.30 1009.40 1009.28 1009.02 1008.81 1008.65 1008.53 1008.29 1007.92 1007.72 1007.58 1007.30 1006.64 1006.06 1005.54 1005.34 1004.88 1004.49 1004.63 1004.59 1004.26 1004.04 1004.33 1004.34 1004.29
1002.54 1002.46 1002.71 1003.15 1003.53 1004.10 1004.61 1005.46 1006.44 1007.03 1007.57 1008.06 1008.60 1009.24 1009.64 1009.81 1009.84 1009.97 1010.02 1009.93 1009.74 1009.63 1009.50 1009.31 1009.18 1009.17 1008.96 1008.54 1007.89 1007.32 1006.93 1006.55 1006.19 1005.32 1004.67 1004.54 1004.73 1004.78 1004.51 1004.38 1004.44 1004.49 1004.55
1002.87 1003.22 1003.52 1003.76 1004.41 1005.30 1006.26 1006.54 1006.91 1007.56 1008.40 1008.98 1009.37 1009.87 1010.32 1010.64 1010.76 1010.73 1010.66 1010.61 1010.49 1010.26 1010.19 1010.22 1010.17 1009.83 1009.28 1008.80 1008.38 1007.74 1007.20 1006.73 1006.00 1005.30 1004.90 1004.62 1004.89 1004.66 1004.70 1004.54 1004.66 1004.68 1004.74
1003.86 1004.10 1004.45 1005.00 1005.20 1006.06 1006.68 1007.83 1008.09 1008.33 1009.18 1010.09 1010.40 1010.63 1010.96 1011.10 1011.42 1011.44 1011.36 1011.36 1011.33 1011.30 1011.01 1010.70 1010.32 1010.02 1009.61 1009.19 1009.12 1008.64 1007.72 1006.59 1005.74 1005.08 1004.77 1004.59 1004.50 1004.47 1004.54 1004.46 1004.42 1004.65 1004.66
Wind_Speed
19 18 17 15 14 13 10 10 10 8 9 7 8 8 8 9 8 9 8 7 8 6 5 7 8 5 4 4 3 2 3 4 4 4 3 2 4 6 5 8 7 7 7
19 18 18 15 15 14 13 11 11 11 8 9 7 9 10 10 10 11 10 9 10 9 9 7 9 4 6 5 4 6 5 4 4 5 3 3 6 5 5 6 7 8 8
18 18 16 15 14 14 14 12 11 11 8 9 8 10 12 11 10 10 11 11 10 11 11 10 11 6 7 5 5 6 4 3 4 4 4 3 4 3 4 4 5 6 5
18 17 16 16 15 15 15 14 13 12 11 12 12 12 12 10 11 11 12 12 12 11 11 11 12 11 13 10 7 8 6 5 5 5 5 5 5 4 3 4 5 5 8
18 17 17 16 16 15 14 14 14 14 14 14 12 12 11 11 10 12 12 12 12 12 11 12 13 14 17 15 9 9 8 8 6 8 8 4 4 4 6 4 9 7 6
19 19 18 16 16 16 15 14 14 14 15 14 15 15 14 11 14 17 15 12 13 13 13 12 14 15 16 18 20 21 14 12 12 9 10 12 14 10 6 9 8 4 7
17 16 16 15 15 16 15 14 15 15 14 15 15 15 15 15 17 20 20 13 12 13 14 13 12 11 15 14 16 20 19 20 23 15 14 15 15 13 11 8 13 11 13
15 15 15 15 16 15 14 15 14 13 15 14 14 14 14 13 15 18 20 17 14 15 15 15 16 16 14 13 13 14 15 18 17 14 20 21 17 13 13 15 16 14 10
16 17 16 16 16 15 16 16 15 13 14 14 14 15 15 15 16 18 15 14 16 17 15 15 17 18 16 14 14 16 17 17 11 20 23 24 22 17 17 8 8 8 11
16 18 16 16 17 17 17 17 14 14 14 11 13 14 16 15 15 19 17 11 14 11 14 17 18 19 14 15 14 15 19 16 14 14 11 17 22 22 15 16 14 12 12
10 10 13 16 18 16 15 13 12 13 12 13 13 12 14 14 14 18 20 14 13 12 13 12 11 15 19 18 20 18 20 17 17 14 15 13 13 14 13 13 18 15 14
8 11 12 13 11 11 14 12 12 12 12 11 11 10 9 11 14 16 20 23 18 14 13 11 11 15 17 20 17 21 21 16 13 13 13 14 12 10 11 14 19 18 17
4 8 10 10 11 12 13 12 10 11 11 10 9 9 8 7 8 17 21 22 23 13 13 13 12 12 12 9 14 16 13 10 10 12 14 15 14 15 14 14 16 19 21
6 3 5 6 7 10 9 9 9 10 10 9 8 8 7 6 7 7 9 10 17 10 14 11 7 6 8 8 5 7 7 8 10 11 13 14 13 11 13 11 13 13 15
5 4 2 4 6 5 4 0 6 7 8 9 10 8 7 7 8 10 9 8 8 9 4 3 5 5 6 6 5 6 5 5 7 9 11 12 12 12 13 12 13 13 16
5 3 2 1 3 5 6 4 10 5 4 2 2 6 2 3 9 8 7 7 7 12 3 3 2 3 3 3 3 4 3 5 6 8 8 10 11 12 12 13 13 15 16
2 5 3 2 3 6 6 7 5 3 14 15 11 11 7 10 8 10 10 10 7 6 1 1 0 2 2 3 3 3 4 5 7 7 8 10 11 13 15 14 10 9 13
5 5 4 3 3 5 6 6 5 5 5 4 11 10 11 11 10 9 10 7 3 5 2 2 1 0 1 2 3 3 4 4 6 7 9 11 12 12 12 12 11 12 14
4 3 3 3 3 4 5 7 6 6 6 6 4 6 5 9 9 10 5 3 3 2 2 1 1 2 3 3 4 4 4 5 5 5 8 9 11 10 10 8 5 9 4
3 5 4 4 4 7 6 7 8 7 6 5 5 3 2 3 4 3 3 2 2 1 1 2 2 3 3 3 3 3 5 5 5 5 6 8 6 5 4 4 4 6 6
4 4 6 6 7 6 7 9 8 9 6 6 5 2 3 5 5 4 4 3 3 1 1 1 2 3 3 3 3 3 4 4 5 5 4 5 4 4 5 4 4 4 5
5 5 6 7 7 8 9 8 8 7 7 8 7 7 11 6 5 5 5 5 6 6 6 6 5 5 6 6 6 4 5 5 5 4 4 3 3 3 2 3 3 2 6
5 7 8 8 9 12 10 8 8 8 7 7 7 7 7 6 6 6 6 6 6 6 7 7 6 6 6 7 7 7 7 7 6 5 4 3 3 2 1 1 0 1 1
4 7 8 7 7 9 10 10 9 9 8 8 8 8 6 6 6 7 7 6 7 7 7 7 7 10 7 6 6 6 6 7 7 6 5 3 3 2 0 1 2 3 5
7 7 8 9 9 9 8 8 9 9 9 7 7 7 6 6 6 7 7 7 7 8 9 8 7 11 11 13 15 16 15 13 9 8 5 3 5 5 3 3 3 3 3
8 9 8 8 9 9 10 7 9 10 10 7 7 7 7 7 7 6 7 8 7 7 9 8 11 16 17 13 17 19 13 14 12 8 4 4 5 4 4 4 5 3 4
Wind_Direction
192 193 195 199 201 197 188 188 189 183 197 197 189 196 195 195 193 195 200 192 205 219 212 211 234 203 220 215 217 194 213 167 211 289 229 259 210 219 230 221 224 222 230
190 192 197 196 194 198 199 189 187 191 188 200 186 195 203 203 198 201 208 204 203 212 224 223 241 218 226 209 209 225 217 199 193 249 251 256 218 217 226 217 223 225 223
190 192 194 195 192 195 200 196 189 191 174 194 191 203 209 210 204 203 208 209 209 213 213 219 233 220 239 217 206 228 231 196 194 217 257 248 245 203 231 232 219 223 228
189 192 192 194 195 199 201 201 197 193 188 195 204 212 212 206 209 207 208 211 213 217 213 216 224 220 233 231 217 219 217 222 200 210 232 241 227 228 213 209 242 216 230
186 191 196 194 195 199 203 201 201 202 203 203 203 213 210 206 208 211 210 213 215 218 216 219 225 224 222 224 221 229 207 221 219 231 242 222 216 201 209 202 229 235 225
188 194 194 192 194 198 200 202 201 205 208 207 212 209 212 211 207 204 205 211 215 219 222 222 229 226 228 221 221 231 216 223 232 228 244 244 246 235 225 223 227 194 252
188 194 194 194 197 200 200 195 202 206 205 211 212 213 216 215 204 205 207 215 216 221 226 229 231 231 230 234 232 238 239 230 229 233 240 243 247 229 221 216 224 221 231
187 191 192 191 196 198 198 201 203 203 207 211 216 216 220 221 205 207 208 218 227 228 227 228 233 238 231 223 233 237 238 240 235 235 244 252 246 243 221 224 231 234 252
187 194 193 192 193 193 199 203 203 200 207 213 215 215 218 223 206 205 196 219 228 235 234 230 233 238 236 213 229 239 247 248 232 235 239 246 249 231 223 220 227 212 239
196 196 190 190 195 196 200 205 203 204 212 210 217 217 217 222 206 203 197 218 231 235 239 241 230 235 226 209 223 237 250 256 251 250 243 248 247 251 233 228 240 228 240
190 181 189 196 199 198 199 202 203 204 208 214 219 219 219 214 219 199 199 215 227 234 238 242 241 221 224 220 215 234 244 255 252 249 257 253 247 241 237 223 232 232 236
170 184 191 196 198 195 196 198 201 202 209 214 216 223 222 220 207 201 204 210 220 228 236 239 242 228 222 221 222 236 246 251 256 259 261 263 261 249 235 226 222 226 226
178 196 185 176 190 197 195 197 196 200 207 212 216 221 221 204 207 201 206 213 223 230 237 241 243 240 238 244 242 250 252 256 255 259 260 261 258 260 251 238 229 232 233
73 95 176 186 193 201 199 193 198 201 208 214 213 217 212 203 204 197 213 222 233 229 248 255 268 271 263 261 257 233 224 232 240 252 260 266 274 273 265 249 235 227 232
35 31 47 186 188 158 92 346 212 210 212 205 213 204 198 205 210 204 205 205 214 220 211 211 241 247 257 259 256 256 253 227 234 246 256 265 268 269 264 264 251 242 247
24 1 343 282 173 160 156 118 50 19 3 43 227 173 86 76 138 145 143 144 153 143 152 199 216 227 242 265 274 288 293 305 311 311 296 286 282 278 274 265 266 253 244
359 294 277 267 187 159 157 159 133 54 73 52 61 89 106 131 116 122 115 99 109 116 169 144 305 0 356 351 345 329 311 311 311 301 300 298 294 290 287 281 275 281 270
329 276 273 265 193 158 155 144 141 136 113 70 33 57 63 85 91 113 120 97 62 39 72 121 135 55 341 294 276 272 274 274 307 305 300 301 296 288 285 287 284 276 273
3 352 354 65 71 98 120 132 126 109 103 107 108 65 57 63 63 80 76 85 118 122 125 123 211 236 260 266 275 280 278 280 282 293 304 309 307 294 289 291 310 313 282
78 82 67 80 76 100 99 108 104 97 96 98 92 90 74 27 50 40 60 82 89 107 178 235 251 255 273 277 274 271 304 299 300 293 309 320 321 344 354 358 1 40 50
124 90 92 78 71 72 89 104 105 107 95 86 75 50 38 94 73 51 42 34 26 350 297 304 325 323 331 319 276 277 297 288 282 299 316 325 328 346 352 347 9 22 70
144 132 114 106 101 89 90 89 95 92 94 98 91 69 69 67 64 58 41 23 8 16 11 10 18 16 1 348 342 337 312 306 308 308 300 306 327 341 326 339 5 104 118
156 134 123 112 111 110 98 94 92 87 86 75 70 66 59 61 55 50 43 28 21 23 19 21 16 5 1 358 352 346 340 334 328 312 290 305 310 284 350 54 136 127 129
105 117 116 108 109 112 113 108 97 86 89 79 73 67 52 48 52 50 43 36 36 37 31 30 23 12 353 351 347 345 333 335 310 292 303 295 266 249 198 134 116 106 107
97 100 106 110 104 102 93 94 103 95 81 79 84 81 72 62 53 49 43 43 37 34 32 26 20 14 5 2 3 356 339 318 310 305 291 257 248 231 207 185 177 142 121
84 89 87 85 92 93 92 87 92 91 90 80 70 67 67 65 52 44 43 39 40 37 34 29 25 24 18 11 357 338 331 336 342 324 289 248 243 241 239 209 195 186 155